Location: Avon School (historical)
(37.7514°N, 90.2201°W)
Time: 03:01:05
(UTC+00:00)

Vanguard 2 Rocket - Pass Details

Date: 12 November 2024
Orbit: 554 x 3296 km, 32.9° (Epoch: 03 December)

Event Time Altitude Azimuth Distance (km) Brightness Sun altitude
Rises 10:10:32 0° 183° (S) 5,021 10.7 -29.3°
Reaches altitude 10° 10:15:14 10° 164° (SSE) 4,528 10.6 -28.4°
Maximum altitude 10:22:53 17° 128° (SE) 4,614 11.0 -26.9°
Drops below altitude 10° 10:32:23 10° 95° (E) 5,854 12.1 -25.0°
Sets 10:39:54 0° 80° (E) 7,174 12.8 -23.5°
